YD2CLX-19 Weather Reports


time (UTC)temp
F
wind
direction
speed
knots
gust
knots
rain 1hr
in
rain 24hr
in
rain mn
in
humidity
%
barometer
mb
20260504204554 84 94 10.4 11.3 0.00 0.00 0.00 73 1009.0
20260504203055 84 94 10.4 11.3 0.00 0.00 0.00 72 1008.0
20260504201555 84 95 10.4 10.4 0.00 0.00 0.00 74 1009.0
20260504200057 84 95 10.4 10.4 0.00 0.00 0.00 72 1008.0
20260504194555 84 95 10.4 10.4 0.00 0.00 0.00 74 1009.0
20260504193055 84 95 10.4 10.4 0.01 0.00 0.00 73 1009.0
20260504191554 84 105 8.7 10.4 0.00 0.00 0.00 75 1009.0
20260504190057 84 105 8.7 10.4 0.00 0.00 0.00 74 1009.0
20260504184555 84 105 8.7 10.4 0.00 0.00 0.00 75 1009.0
20260504183055 84 105 8.7 10.4 0.01 0.00 0.00 75 1009.0
20260504181555 84 107 7.8 8.7 0.00 0.00 0.00 76 1009.0
20260504180059 84 107 7.8 8.7 0.00 0.00 0.00 76 1009.0
20260504174554 84 104 10.4 12.2 0.00 0.00 0.00 78 1009.0
20260504173055 84 104 10.4 12.2 0.01 0.00 0.00 78 1009.0
20260504171555 83 104 9.6 11.3 0.00 0.00 0.00 79 1010.0
20260504081511 83 109 12.2 13.9 0.00 0.00 0.00 78 1008.0
20260504050012 83 109 12.2 13.9 0.02 0.00 0.00 78 1010.0
20260504044511 83 109 12.2 13.9 0.00 0.00 0.00 78 1010.0
20260504043012 83 118 13.9 13.9 0.01 0.00 0.00 77 1010.0
20260504041511 83 118 13.9 13.9 0.00 0.00 0.00 77 1011.0
20260504040011 83 118 13.9 13.9 0.06 0.00 0.00 77 1011.0
20260504034512 83 118 13.9 13.9 0.00 0.00 0.00 77 1011.0
20260504033011 83 118 13.9 13.9 0.00 0.00 0.00 77 1011.0
20260504031511 83 118 13.9 13.9 0.00 0.00 0.00 77 1011.0
20260504030011 83 118 13.9 13.9 0.01 0.00 0.00 77 1011.0
20260504024511 83 118 13.9 13.9 0.00 0.00 0.00 77 1011.0
20260504023011 83 118 13.9 13.9 0.00 0.00 0.00 77 1011.0
20260504021511 83 118 13.9 13.9 0.00 0.00 0.00 77 1011.0
20260504020011 83 118 13.9 13.9 0.00 0.00 0.00 77 1011.0
20260504014511 83 118 13.9 13.9 0.00 0.00 0.00 77 1011.0
20260504013056 83 118 13.9 13.9 0.06 0.00 0.00 77 1011.0
20260504011557 84 115 14.8 14.8 0.00 0.00 0.00 75 1011.0
20260504010057 84 115 14.8 14.8 0.00 0.00 0.00 76 1011.0
20260504004556 84 115 14.8 14.8 0.00 0.00 0.00 75 1011.0
20260504003056 84 115 14.8 14.8 0.04 0.00 0.00 75 1011.0
20260504001556 85 113 14.8 14.8 0.00 0.00 0.00 75 1010.0
20260504000059 85 113 14.8 14.8 0.00 0.00 0.00 75 1010.0
20260503234557 85 105 14.8 14.8 0.00 0.00 0.00 75 1010.0
20260503233057 85 105 14.8 14.8 0.01 0.00 0.00 75 1010.0
20260503231556 84 110 13.9 13.9 0.00 0.00 0.00 75 1009.0
20260503230058 84 110 13.9 13.9 0.00 0.00 0.00 75 1009.0
20260503224556 84 110 13.9 13.9 0.00 0.00 0.00 75 1009.0
20260503223058 84 110 13.9 13.9 0.01 0.00 0.00 75 1009.0
20260503221556 84 106 12.2 13.0 0.00 0.00 0.00 75 1009.0
20260503220056 84 106 12.2 13.0 0.00 0.00 0.00 75 1009.0
20260503214556 84 106 12.2 13.0 0.00 0.00 0.00 75 1009.0
20260503213058 84 106 12.2 13.0 0.00 0.00 0.00 75 1009.0
20260503211556 84 104 12.2 13.0 0.00 0.00 0.00 75 1009.0
20260503210059 84 104 12.2 13.0 0.00 0.00 0.00 75 1009.0